CW5456 Weather Reports


time (UTC)temp
F
wind
direction
speed
knots
gust
knots
rain 1hr
in
rain 24hr
in
rain mn
in
humidity
%
barometer
mb
20260505122051 54 135 3.5 8.7 0.00 0.00 0.00 95 1011.5
20260505121550 53 135 4.3 11.3 0.00 0.00 0.00 95 1011.5
20260505121050 53 129 3.5 11.3 0.00 0.00 0.00 95 1011.5
20260505120549 53 116 7.8 8.7 0.00 0.00 0.00 95 1011.4
20260505120050 53 106 3.5 7.8 0.00 0.00 0.00 95 1011.4
20260505115550 53 123 1.7 9.6 0.00 0.00 0.00 95 1011.3
20260505115050 53 108 3.5 9.6 0.00 0.00 0.00 95 1011.2
20260505114550 53 110 2.6 6.1 0.00 0.00 0.00 96 1011.2
20260505114049 53 128 2.6 7.0 0.00 0.00 0.00 96 1011.2
20260505113549 53 129 0.9 7.0 0.00 0.00 0.00 96 1011.2
20260505113049 53 227 1.7 3.5 0.00 0.00 0.00 95 1011.3
20260505112549 52 231 0.0 3.5 0.00 0.00 0.00 96 1011.2
20260505112049 52 231 0.0 3.5 0.00 0.00 0.00 96 1011.2
20260505111549 52 235 0.0 3.5 0.00 0.00 0.00 95 1011.2
20260505110549 52 240 0.0 5.2 0.00 0.00 0.00 95 1011.1
20260505102048 51 260 0.0 0.0 0.00 0.00 0.00 94 1010.8
20260505101549 51 260 0.0 0.0 0.00 0.00 0.00 94 1010.7
20260505101048 51 260 0.0 0.0 0.00 0.00 0.00 94 1010.7
20260505100548 51 260 0.0 0.0 0.00 0.00 0.00 94 1010.7
20260505100048 51 260 0.0 0.0 0.00 0.00 0.00 94 1010.7
20260505095548 51 260 0.0 0.0 0.00 0.00 0.00 94 1010.6
20260505095048 51 260 0.0 0.0 0.00 0.00 0.00 94 1010.6
20260505094548 51 260 0.0 0.0 0.00 0.00 0.00 94 1010.5
20260505094048 51 260 0.0 0.0 0.00 0.00 0.00 94 1010.5
20260505093549 51 259 0.0 0.0 0.00 0.00 0.00 94 1010.4
20260505093047 51 259 0.0 0.0 0.00 0.00 0.00 94 1010.4
20260505091548 51 260 0.0 0.0 0.00 0.00 0.00 93 1010.4
20260505091048 51 259 0.0 0.0 0.00 0.00 0.00 93 1010.3
20260505090547 51 260 0.0 1.7 0.00 0.00 0.00 93 1010.3
20260505090048 52 260 0.0 2.6 0.00 0.00 0.00 93 1010.1
20260505085548 52 259 1.7 2.6 0.00 0.00 0.00 93 1010.1
20260505085047 52 260 0.0 1.7 0.00 0.00 0.00 93 1010.1
20260505084547 52 260 0.0 1.7 0.00 0.00 0.00 93 1010.1
20260505084047 52 259 0.0 1.7 0.00 0.00 0.00 93 1010.1
20260505083547 52 260 0.0 1.7 0.00 0.00 0.00 93 1010.0
20260505083047 52 260 0.0 1.7 0.00 0.00 0.00 93 1010.0
20260505082046 52 260 0.0 0.9 0.00 0.00 0.00 93 1009.8
20260505081547 52 260 0.0 0.0 0.00 0.00 0.00 93 1009.8
20260505081047 52 260 0.0 0.0 0.00 0.00 0.00 92 1009.9
20260505080547 52 260 0.0 0.0 0.00 0.00 0.00 92 1009.9
20260505080047 52 260 0.0 0.0 0.00 0.00 0.00 92 1010.0
20260505075546 52 260 0.0 0.0 0.00 0.00 0.00 92 1009.9
20260505075047 52 260 0.0 0.0 0.00 0.00 0.00 92 1009.9
20260505074546 52 260 0.0 0.9 0.00 0.00 0.00 91 1009.8
20260505074046 52 260 0.0 0.9 0.00 0.00 0.00 91 1009.8
20260505073546 52 260 0.0 0.0 0.00 0.00 0.00 91 1009.6
20260505073047 52 260 0.0 0.0 0.00 0.00 0.00 91 1009.5
20260505072047 52 260 0.0 0.0 0.00 0.00 0.00 91 1009.5
20260505071546 53 260 0.0 2.6 0.00 0.00 0.00 91 1009.4
20260505070546 53 262 1.7 5.2 0.00 0.00 0.00 90 1009.5
20260505070046 53 263 0.0 2.6 0.00 0.00 0.00 91 1009.3
20260505065547 53 263 0.9 2.6 0.00 0.00 0.00 90 1009.3
20260505065046 53 263 0.9 2.6 0.00 0.00 0.00 90 1009.2
20260505064545 53 263 0.0 1.7 0.00 0.00 0.00 90 1009.3
20260505064045 53 264 0.0 0.0 0.00 0.00 0.00 89 1009.1
20260505063545 53 263 0.0 0.0 0.00 0.00 0.00 89 1009.1
20260505063045 54 264 0.0 0.0 0.00 0.00 0.00 89 1009.1
20260505062547 54 264 0.0 0.0 0.00 0.00 0.00 89 1009.1
20260505062046 54 263 0.0 0.0 0.00 0.00 0.00 89 1009.0
20260505061545 54 263 0.0 0.0 0.00 0.00 0.00 89 1009.0
20260505061045 54 263 0.0 0.0 0.00 0.00 0.00 89 1009.0
20260505060547 54 263 0.0 1.7 0.00 0.00 0.00 89 1008.8
20260505060045 54 263 0.0 1.7 0.00 0.00 0.00 89 1008.7
20260505055045 55 263 0.0 1.7 0.00 0.00 0.00 88 1008.5
20260505054545 55 263 0.0 1.7 0.00 0.00 0.00 88 1008.5
20260505054044 55 263 0.0 1.7 0.00 0.00 0.00 88 1008.5
20260505053545 55 263 0.0 1.7 0.00 0.00 0.00 88 1008.5
20260505053045 55 263 0.0 1.7 0.00 0.00 0.00 88 1008.5
20260505052545 55 264 0.0 0.9 0.00 0.00 0.00 87 1008.5
20260505052045 55 264 0.0 0.9 0.00 0.00 0.00 87 1008.5
20260505050544 56 264 0.0 0.0 0.00 0.00 0.00 87 1008.3
20260505041544 57 263 0.0 0.0 0.00 0.00 0.00 86 1007.9
20260505041043 58 263 0.0 0.0 0.00 0.00 0.00 85 1007.7
20260505040544 58 263 0.0 0.0 0.00 0.00 0.00 85 1007.7
20260505035544 58 263 0.0 2.6 0.00 0.00 0.00 84 1007.5
20260505035044 59 263 0.0 2.6 0.00 0.00 0.00 83 1007.5
20260505034543 59 263 0.9 2.6 0.00 0.00 0.00 83 1007.4
20260505034043 59 264 0.0 2.6 0.00 0.00 0.00 82 1007.3
20260505033044 60 264 0.0 1.7 0.00 0.00 0.00 81 1007.2
20260505032544 60 264 0.0 3.5 0.00 0.00 0.00 81 1007.1
20260505032043 60 264 0.0 3.5 0.00 0.00 0.00 81 1007.1
20260505031543 60 264 2.6 3.5 0.00 0.00 0.00 81 1007.0
20260505031043 60 264 0.0 3.5 0.00 0.00 0.00 80 1007.0
20260505030543 60 264 0.9 3.5 0.00 0.00 0.00 80 1007.0
20260505030043 61 264 0.0 1.7 0.00 0.00 0.00 79 1006.9
20260505024542 61 264 0.0 2.6 0.00 0.00 0.00 78 1006.9
20260505024043 61 264 0.9 2.6 0.00 0.00 0.00 78 1006.9
20260505023542 61 264 0.0 5.2 0.00 0.00 0.00 78 1006.9
20260505023043 61 264 0.0 6.1 0.00 0.00 0.00 78 1006.8
20260505022542 61 262 5.2 6.1 0.00 0.00 0.00 78 1006.8
20260505022042 61 264 2.6 6.1 0.00 0.00 0.00 79 1006.9
20260505021542 61 266 0.0 6.1 0.00 0.00 0.00 79 1007.0
20260505021042 61 266 3.5 5.2 0.00 0.00 0.00 79 1006.9
20260505020542 61 266 0.9 5.2 0.00 0.00 0.00 79 1007.0
20260505020042 61 266 3.5 5.2 0.00 0.00 0.00 80 1007.0
20260505015542 60 266 0.9 5.2 0.00 0.00 0.00 80 1007.0
20260505015042 60 266 0.0 5.2 0.00 0.00 0.00 81 1007.0
20260505014042 60 266 0.0 3.5 0.00 0.00 0.00 82 1007.2
20260505013542 59 266 0.0 7.0 0.00 0.00 0.00 81 1007.2
20260505013042 60 266 3.5 7.0 0.00 0.00 0.00 81 1007.3
20260505012541 59 266 3.5 7.0 0.00 0.00 0.00 81 1007.3
20260505012042 59 266 1.7 5.2 0.00 0.00 0.00 82 1007.3
20260505011042 59 266 0.0 6.1 0.00 0.00 0.00 82 1007.4
20260505010541 59 266 0.0 7.8 0.00 0.00 0.00 82 1007.4
20260505005041 59 275 7.0 8.7 0.00 0.00 0.00 81 1007.4
20260505004541 59 256 0.0 6.1 0.00 0.00 0.00 82 1007.4
20260505004041 59 250 0.0 7.0 0.00 0.00 0.00 83 1007.4
20260505003541 58 248 6.1 9.6 0.00 0.00 0.00 83 1007.4
20260505003042 58 289 6.1 9.6 0.00 0.00 0.00 83 1007.4
20260505002040 59 258 7.0 11.3 0.00 0.00 0.00 82 1007.4
20260505001540 59 250 5.2 10.4 0.00 0.00 0.00 81 1007.4
20260505001040 59 268 9.6 9.6 0.00 0.00 0.00 81 1007.4
20260505000041 59 273 3.5 7.0 0.00 0.00 0.00 82 1007.3
20260504235541 59 289 0.0 6.1 0.00 0.00 0.00 82 1007.3
20260504235040 59 295 0.0 2.6 0.00 0.00 0.00 83 1007.4
20260504234540 59 292 2.6 2.6 0.00 0.00 0.00 84 1007.4
20260504234040 59 294 0.0 3.5 0.00 0.00 0.00 84 1007.4
20260504233540 58 295 2.6 5.2 0.00 0.00 0.00 84 1007.4
20260504233040 58 308 0.0 7.8 0.00 0.00 0.00 85 1007.4
20260504232540 58 308 3.5 7.8 0.00 0.00 0.00 85 1007.4
20260504232040 58 319 0.9 7.8 0.00 0.00 0.00 84 1007.4
20260504231540 58 345 3.5 7.8 0.00 0.00 0.00 83 1007.4
20260504230540 59 356 4.3 7.8 0.00 0.00 0.00 81 1007.5
20260504230040 60 13 1.7 4.3 0.00 0.00 0.00 80 1007.5
20260504225539 60 13 1.7 4.3 0.00 0.00 0.00 80 1007.5
20260504225040 61 13 4.3 7.0 0.00 0.00 0.00 79 1007.5
20260504224540 62 14 1.7 7.0 0.00 0.00 0.00 78 1007.5
20260504224040 63 15 5.2 7.0 0.00 0.00 0.00 76 1007.5
20260504223539 64 44 4.3 5.2 0.00 0.00 0.00 76 1007.6
20260504223039 65 44 0.9 3.5 0.00 0.00 0.00 73 1007.6
20260504222539 65 44 1.7 3.5 0.00 0.00 0.00 73 1007.5
20260504222039 65 44 1.7 3.5 0.00 0.00 0.00 72 1007.6
20260504221540 65 44 3.5 3.5 0.00 0.00 0.00 72 1007.7
20260504221039 65 44 0.9 1.7 0.00 0.00 0.00 73 1007.7
20260504220039 64 44 1.7 3.5 0.00 0.00 0.00 76 1007.8
20260504215539 65 44 2.6 2.6 0.00 0.00 0.00 75 1007.9
20260504214538 64 44 0.0 3.5 0.00 0.00 0.00 75 1008.0
20260504214039 65 44 0.9 3.5 0.00 0.00 0.00 74 1008.0
20260504213538 65 44 0.9 3.5 0.00 0.00 0.00 72 1008.0
20260504213039 66 44 0.0 3.5 0.00 0.00 0.00 71 1008.0
20260504212539 66 44 1.7 2.6 0.00 0.00 0.00 72 1008.1
20260504212039 66 44 0.9 3.5 0.00 0.00 0.00 70 1008.1
20260504211538 66 44 1.7 3.5 0.00 0.00 0.00 70 1008.2
20260504211038 66 44 0.9 2.6 0.00 0.00 0.00 70 1008.2
20260504210538 66 44 0.0 3.5 0.00 0.00 0.00 71 1008.2
20260504205538 65 44 0.0 5.2 0.00 0.00 0.00 71 1008.2
20260504205038 66 44 1.7 6.1 0.00 0.00 0.00 72 1008.2
20260504204538 66 44 4.3 7.0 0.00 0.00 0.00 70 1008.2
20260504204038 67 44 3.5 7.0 0.00 0.00 0.00 69 1008.2
20260504203538 67 46 4.3 7.0 0.00 0.00 0.00 69 1008.2
20260504203038 67 49 7.0 7.0 0.00 0.00 0.00 69 1008.2
20260504202538 67 52 3.5 7.0 0.00 0.00 0.00 67 1008.2
20260504202038 67 58 4.3 6.1 0.00 0.00 0.00 67 1008.2
20260504201538 68 58 1.7 6.1 0.00 0.00 0.00 67 1008.3
20260504201038 67 61 2.6 4.3 0.00 0.00 0.00 67 1008.3
20260504200538 67 61 1.7 6.1 0.00 0.00 0.00 69 1008.3
20260504200037 66 61 2.6 7.0 0.00 0.00 0.00 70 1008.3
20260504195038 66 95 0.9 6.1 0.00 0.00 0.00 72 1008.3
20260504194038 65 98 3.5 5.2 0.00 0.00 0.00 71 1008.3
20260504193538 65 102 3.5 5.2 0.00 0.00 0.00 73 1008.3
20260504192537 65 126 1.7 3.5 0.00 0.00 0.00 72 1008.3
20260504192037 65 128 2.6 3.5 0.00 0.00 0.00 72 1008.4
20260504191537 65 133 2.6 3.5 0.00 0.00 0.00 73 1008.4
20260504191038 65 133 1.7 3.5 0.00 0.00 0.00 73 1008.4
20260504190537 65 133 1.7 4.3 0.00 0.00 0.00 73 1008.4
20260504190037 65 133 1.7 4.3 0.00 0.00 0.00 73 1008.5
20260504185536 65 135 1.7 4.3 0.00 0.00 0.00 72 1008.4
20260504185037 64 135 2.6 4.3 0.00 0.00 0.00 73 1008.5
20260504184538 64 140 1.7 4.3 0.00 0.00 0.00 74 1008.5
20260504183536 63 146 0.9 5.2 0.00 0.00 0.00 77 1008.7
20260504183036 62 147 3.5 5.2 0.00 0.00 0.00 79 1008.8
20260504182537 62 148 3.5 4.3 0.00 0.00 0.00 76 1008.7
20260504182036 63 154 3.5 4.3 0.00 0.00 0.00 78 1008.7
20260504181536 63 156 0.0 3.5 0.00 0.00 0.00 79 1008.7
20260504181038 63 156 0.0 3.5 0.00 0.00 0.00 79 1008.7
20260504180036 63 156 0.9 3.5 0.00 0.00 0.00 78 1008.5
20260504175536 63 156 0.9 0.9 0.00 0.00 0.00 77 1008.5
20260504175036 63 156 0.0 0.0 0.00 0.00 0.00 80 1008.5
20260504174536 62 156 0.0 1.7 0.00 0.00 0.00 79 1008.5
20260504174037 62 156 0.0 1.7 0.00 0.00 0.00 77 1008.5
20260504172536 61 156 0.0 0.0 0.00 0.00 0.00 80 1008.6
20260504172035 61 156 0.0 0.9 0.00 0.00 0.00 81 1008.6
20260504171035 60 156 0.0 0.9 0.00 0.00 0.00 85 1008.6
20260504170535 58 156 0.0 0.0 0.00 0.00 0.00 87 1008.6
20260504151034 57 156 0.0 4.3 0.00 0.00 0.00 81 1008.1
20260504150534 57 156 3.5 5.2 0.00 0.00 0.00 81 1008.1
20260504150104 57 156 0.0 7.8 0.00 0.00 0.00 81 1008.1
20260504141103 53 186 4.3 6.1 0.00 0.00 0.00 87 1007.6
20260504130533 51 217 1.7 4.3 0.00 0.00 0.00 88 1007.4